Weather History for KBPT - June, 2013

Change the Weather History Date:

Wednesday, June 26, 2013

  Actual Average Record
Temperature  
Mean Temperature 86 °F 82 °F  
Max Temperature 96 °F 91 °F 101 °F (1944)
Min Temperature 76 °F 74 °F 59 °F (1974)
Degree Days  
Heating Degree Days 0 0  
Month to date heating degree days 0 0  
Since 1 June heating degree days 0 0  
Since 1 July heating degree days 1262 1401  
Cooling Degree Days 21 17  
Month to date cooling degree days 449 415  
Year to date cooling degree days 936 981  
Since 1 June cooling degree days 449 415  
Growing Degree Days 36 (Base 50)    
Moisture  
Dew Point 74 °F    
Average Humidity 69    
Maximum Humidity 91    
Minimum Humidity 46    
Precipitation  
Precipitation 0.00 in 0.26 in 4.87 in (1986)
Month to date precipitation 3.17 6.10  
Year to date precipitation 31.26 26.91  
Snow  
Snow 0.00 in 0.00 in 0.00 in ()
Month to date snowfall 0.0 0.0  
Since 1 June snowfall 0.0 0.0  
Since 1 July snowfall 0.0 T  
Snow Depth 0.00 in    
Sea Level Pressure  
Sea Level Pressure 29.98 in    
Wind  
Wind Speed 7 mph (South)    
Max Wind Speed 16 mph    
Max Gust Speed 21 mph    
Visibility 10 miles    
Events      
T = Trace of Precipitation, MM = Missing Value Source: NWS Daily Summary

Daily Weather History Graph

Daily Weather History Graph

Search for Another Location

Airport or City:

Trip Planner

Search our weather history database for the weather conditions in past years. The results will help you decide how hot, cold, wet, or windy it might be!

Date:

Astronomy

Jun. 26, 2013 Rise Set
Actual Time 6:17 AM CDT 8:20 PM CDT
Civil Twilight 5:49 AM CDT 8:48 PM CDT
Nautical Twilight 5:16 AM CDT 9:21 PM CDT
Astronomical Twilight 4:40 AM CDT 9:57 PM CDT
Moon 11:04 PM CDT (6/26) 9:52 AM CDT (6/26)
Length of Visible Light 14h 58m
Length of Day
14h 03m
Waning Gibbous, 85% of the Moon is Illuminated
Jun 26
Waning Gibbous
Jun 29
Last Quarter
Jul 8
New
Jul 15
First Quarter
Jul 22
Full

Hourly Weather History & Observations

Time (CDT) Temp. Heat Index Dew Point Humidity Pressure Visibility Wind Dir Wind Speed Gust Speed Precip Events Conditions
12:53 AM 78.1 °F - 75.0 °F 90% 29.97 in 10.0 mi South 3.5 mph - N/A   Clear
1:53 AM 79.0 °F - 75.9 °F 90% 29.97 in 10.0 mi South 5.8 mph - N/A   Partly Cloudy
2:53 AM 80.1 °F 85.1 °F 75.0 °F 85% 29.97 in 10.0 mi South 8.1 mph - N/A   Clear
3:53 AM 79.0 °F - 75.0 °F 88% 29.96 in 10.0 mi South 6.9 mph - N/A   Clear
4:27 AM 80.6 °F 86.2 °F 75.2 °F 84% 29.96 in 10.0 mi South 8.1 mph - N/A   Mostly Cloudy
4:53 AM 80.1 °F 85.1 °F 75.0 °F 85% 29.96 in 10.0 mi South 5.8 mph - N/A   Scattered Clouds
5:53 AM 79.0 °F - 75.0 °F 88% 29.98 in 10.0 mi South 5.8 mph - N/A   Partly Cloudy
6:53 AM 78.1 °F - 73.9 °F 87% 29.98 in 10.0 mi South 5.8 mph - N/A   Scattered Clouds
7:53 AM 81.0 °F 87.3 °F 75.9 °F 85% 30.00 in 10.0 mi SSW 4.6 mph - N/A   Scattered Clouds
8:53 AM 84.0 °F 92.6 °F 75.9 °F 76% 30.01 in 10.0 mi SSW 10.4 mph - N/A   Scattered Clouds
9:53 AM 87.1 °F 96.3 °F 75.0 °F 67% 30.02 in 10.0 mi SSW 12.7 mph - N/A   Partly Cloudy
10:53 AM 89.1 °F 98.0 °F 73.9 °F 61% 30.02 in 10.0 mi SSW 11.5 mph - N/A   Partly Cloudy
11:53 AM 91.9 °F 100.7 °F 73.0 °F 54% 30.02 in 9.0 mi SSW 9.2 mph 16.1 mph N/A   Partly Cloudy
12:53 PM 93.0 °F 97.9 °F 69.1 °F 45% 30.02 in 10.0 mi SSW 9.2 mph - N/A   Clear
1:53 PM 93.0 °F 99.0 °F 70.0 °F 47% 30.00 in 10.0 mi SSW 6.9 mph - N/A   Partly Cloudy
2:53 PM 91.9 °F 99.5 °F 72.0 °F 52% 29.99 in 10.0 mi SSW 6.9 mph 16.1 mph N/A   Mostly Cloudy
3:53 PM 93.0 °F 101.9 °F 73.0 °F 52% 29.97 in 10.0 mi South 11.5 mph 16.1 mph N/A   Scattered Clouds
4:53 PM 91.9 °F 101.3 °F 73.9 °F 55% 29.96 in 10.0 mi South 12.7 mph - N/A   Partly Cloudy
5:53 PM 90.0 °F 99.0 °F 73.9 °F 59% 29.96 in 10.0 mi South 11.5 mph - N/A   Partly Cloudy
6:53 PM 87.1 °F 95.4 °F 73.9 °F 65% 29.95 in 10.0 mi South 9.2 mph - N/A   Clear
7:53 PM 84.9 °F 92.1 °F 73.9 °F 69% 29.95 in 10.0 mi South 6.9 mph - N/A   Clear
8:53 PM 80.1 °F 85.1 °F 75.0 °F 85% 29.95 in 10.0 mi South 5.8 mph - N/A   Clear
9:53 PM 79.0 °F - 75.0 °F 88% 29.96 in 10.0 mi South 4.6 mph - N/A   Clear
10:53 PM 78.1 °F - 75.0 °F 90% 29.97 in 10.0 mi South 4.6 mph - N/A   Clear
11:53 PM 78.1 °F - 75.0 °F 90% 29.99 in 9.0 mi Calm Calm - N/A   Clear